Weather History for New York, NY

Change the Weather History Date:

Thursday, February 24, 2011

  Actual Average Record
Temperature  
Mean Temperature 34 °F 37 °F  
Max Temperature 42 °F 44 °F 73 °F (1985)
Min Temperature 26 °F 30 °F 16 °F (1968)
Degree Days  
Heating Degree Days 31 28  
Month to date heating degree days 707 720  
Since 1 July heating degree days 3270 3319  
Cooling Degree Days 0 0  
Month to date cooling degree days 0 0  
Year to date cooling degree days 0 0  
Moisture  
Dew Point 23 °F    
Average Humidity 57    
Maximum Humidity 85    
Minimum Humidity 29    
Precipitation  
Precipitation 0.04 in 0.11 in 1.70 in (1975)
Month to date precipitation 1.60 2.33  
Year to date precipitation 5.55 5.50  
Snow  
Snow 0.00 in 0.30 in 4.20 in (1966)
Month to date snowfall 4.1 8.0  
Since 1 July snowfall 50.7 20.9  
Snow Depth 0.00 in    
Sea Level Pressure  
Sea Level Pressure 30.17 in    
Wind  
Wind Speed 6 mph (SSE)    
Max Wind Speed 16 mph    
Max Gust Speed 21 mph    
Visibility 10 miles    
Events Rain    
T = Trace of Precipitation, MM = Missing Value Source: NWS Daily Summary

Daily Weather History Graph

Daily Weather History Graph

Search for Another Location

Airport:

Trip Planner

Search our weather history database for the weather conditions in past years. The results will help you decide how hot, cold, wet, or windy it might be!

Date:

Astronomy

Feb. 24, 2011 Rise Set
Actual Time 6:37 AM EST 5:40 PM EST
Civil Twilight 6:09 AM EST 6:08 PM EST
Nautical Twilight 5:37 AM EST 6:40 PM EST
Astronomical Twilight 5:06 AM EST 7:11 PM EST
Moon 12:34 AM EST (2/24) 10:06 AM EST (2/24)
Length of Visible Light 11h 58m
Length of Day
11h 03m
Waning Gibbous, 53% of the Moon is Illuminated
Feb 24
Waning Gibbous
Feb 24
Last Quarter
Mar 4
New
Mar 12
First Quarter
Mar 19
Full

Hourly Weather History & Observations

Time (EST) Temp. Windchill Dew Point Humidity Pressure Visibility Wind Dir Wind Speed Gust Speed Precip Events Conditions
12:51 AM 30.9 °F - 17.1 °F 57% 30.29 in 10.0 mi Calm Calm - N/A   Clear
1:51 AM 30.9 °F - 10.9 °F 43% 30.29 in 10.0 mi Calm Calm - N/A   Clear
2:51 AM 28.9 °F 25.2 °F 19.0 °F 67% 30.27 in 10.0 mi ENE 3.5 mph - N/A   Clear
3:51 AM 28.4 °F 24.6 °F 17.6 °F 64% 30.27 in 10.0 mi ESE 3.5 mph - N/A   Clear
4:51 AM 28.0 °F 24.2 °F 15.1 °F 58% 30.27 in 10.0 mi ENE 3.5 mph - N/A   Clear
5:51 AM 27.0 °F - 15.1 °F 61% 30.27 in 10.0 mi Calm Calm - N/A   Clear
6:51 AM 28.4 °F 23.3 °F 19.4 °F 69% 30.27 in 10.0 mi ENE 4.6 mph - N/A   Clear
7:51 AM 30.0 °F 26.5 °F 21.9 °F 72% 30.26 in 10.0 mi ENE 3.5 mph - N/A   Clear
8:51 AM 33.1 °F 27.7 °F 18.0 °F 54% 30.25 in 10.0 mi ENE 5.8 mph - N/A   Partly Cloudy
9:51 AM 37.0 °F 34.5 °F 19.0 °F 48% 30.25 in 10.0 mi Variable 3.5 mph - N/A   Scattered Clouds
10:51 AM 41.0 °F 36.4 °F 14.0 °F 33% 30.23 in 10.0 mi WSW 6.9 mph - N/A   Mostly Cloudy
11:51 AM 42.1 °F 36.1 °F 12.9 °F 31% 30.20 in 10.0 mi SW 10.4 mph - N/A   Overcast
12:51 PM 39.9 °F 33.9 °F 17.1 °F 40% 30.17 in 10.0 mi SSE 9.2 mph - N/A   Overcast
1:51 PM 39.0 °F 31.8 °F 26.1 °F 60% 30.15 in 10.0 mi South 11.5 mph - N/A   Overcast
2:51 PM 39.0 °F 31.0 °F 28.9 °F 67% 30.12 in 10.0 mi SSE 13.8 mph - N/A   Overcast
3:51 PM 39.9 °F 32.5 °F 30.9 °F 70% 30.09 in 10.0 mi South 12.7 mph - N/A   Mostly Cloudy
4:51 PM 39.9 °F 33.4 °F 30.9 °F 70% 30.08 in 10.0 mi South 10.4 mph - N/A   Mostly Cloudy
5:51 PM 41.0 °F 35.2 °F 30.9 °F 67% 30.07 in 10.0 mi South 9.2 mph - N/A   Overcast
6:51 PM 41.0 °F 35.8 °F 30.0 °F 65% 30.07 in 10.0 mi South 8.1 mph - N/A   Overcast
7:51 PM 41.0 °F 35.2 °F 30.9 °F 67% 30.06 in 10.0 mi South 9.2 mph - N/A   Overcast
8:51 PM 41.0 °F 37.1 °F 32.0 °F 70% 30.04 in 10.0 mi SSE 5.8 mph - N/A   Overcast
9:51 PM 39.9 °F 33.9 °F 34.0 °F 79% 30.03 in 10.0 mi South 9.2 mph - 0.00 in Rain Light Rain
10:51 PM 39.0 °F 34.0 °F 35.1 °F 86% 30.02 in 9.0 mi South 6.9 mph - 0.02 in Rain Light Rain
11:51 PM 39.9 °F 37.8 °F 36.0 °F 86% 29.99 in 8.0 mi SE 3.5 mph - 0.01 in Rain Light Rain